www.pogodaiklimat.ru

Погода и климат >> Архив погоды >> Польша >> Nowy Sacz


ПОГОДА в Nowy Sacz

  • Прогноз погоды в Nowy Sacz
  • Монитор погоды в Nowy Sacz
  • Климат города

АРХИВ ПОГОДЫ в Nowy Sacz

Время (UTC), дата Ветер
(напр.,м/с)
 
Видим.   Явления Облачность Т
(С)
Тd
(С)
f
(%)
Тe
(С)
Тes
(С)
Комфортность P
(гПа)
Po
(гПа)
Тmin
(С)
Tmax
(С)
R
(мм)
R24
(мм)
S
(см)
19 7.08 В 1 22 км н/о +21.7 +13.8 61 +25 +25 комфорт 1017.4 983.2
20 7.08 Ю 1 17 км н/о +19.1 +15.2 78 +22 +22 комфорт 1017.9 983.4
21 7.08 В 1 17 км н/о +18.3 +14.4 78 +20 +20 1018.3 983.7
22 7.08 СВ 1 13 км н/о +17.1 +14.9 87 +18 +18 1018.3 983.6
23 7.08 штиль 0 9000 м дымка н/о +16.1 +14.6 91 +16 +16 1018.3 983.4
00 8.08 В 1 22 км н/о +16.0 +14.0 88 +17 +17 1018.1 983.2
01 8.08 штиль 0 11 км н/о +15.1 +13.6 91 +15 +15 1018.0 983.0
02 8.08 штиль 0 11 км н/о +14.6 +13.5 93 +14 +14 1017.9 982.9
03 8.08 ЮЗ 1 6000 м дымка н/о +14.1 +13.0 93 +14 +14 1018.2 983.1
04 8.08 З 1 10 км н/о +14.0 +13.0 94 +14 +14 1018.2 983.1
05 8.08 З 1-14
{14}
14 км н/о +14.8 +14.0 95 +15 +15 1018.1 983.1
06 8.08 ЮЗ 1
{15}
19 км н/о +17.2 +15.2 88 +18 +18 1018.1 983.4 +13.9 +23.8
07 8.08 Ю 1 27 км н/о +20.3 +15.7 75 +24 +24 комфорт 1017.8 983.4
08 8.08 З 1 30 км н/о +22.4 +16.7 70 +27 +27 душно 1017.3 983.2
09 8.08 З 1 24 км н/о +25.7 +16.5 57 +29 +29 душно 1016.7 983.0
10 8.08 З 1 30 км н/о +28.4 +16.0 47 +32 +32 душно 1016.1 982.7
11 8.08 ЮЗ 2 29 км н/о +29.5 +12.9 36 +31 +31 жарко 1015.8 982.5
12 8.08 ЮВ 3
{7}
30 км н/о +30.6 +14.2 37 +32 +32 жарко 1015.4 982.3
13 8.08 ЮВ 2 40 км н/о +29.7 +13.9 38 +31 +31 жарко 1015.2 982.0
14 8.08 СВ 1 22 км н/о +30.8 +13.6 35 +32 +32 жарко 1014.8 981.7
15 8.08 В 2 35 км н/о +31.1 +11.5 30 +31 +31 жарко 1014.7 981.6
16 8.08 В 2 40 км н/о +30.1 +12.1 33 +31 +31 жарко 1014.5 981.3
17 8.08 В 2 30 км н/о +28.9 +15.8 45 +32 +32 душно 1014.6 981.3
18 8.08 В 1 24 км н/о +26.5 +16.1 53 +30 +30 душно 1015.3 981.7 +17.2 +31.6
19 8.08 В 1 19 км н/о +23.4 +16.9 67 +29 +29 душно 1016.1 982.2
20 8.08 штиль 0 12 км н/о +21.8 +17.6 77 +26 +26 душно 1016.7 982.6
21 8.08 Ю 1 8000 м дымка н/о +20.3 +17.5 84 +25 +25 комфорт 1017.2 982.9
22 8.08 Ю 1 10 км дымка н/о +19.9 +17.3 85 +24 +24 комфорт 1017.6 983.2
23 8.08 ЮВ 1 13 км н/о +20.1 +17.1 83 +24 +24 комфорт 1017.7 983.3
00 9.08 штиль 0 13 км н/о +19.3 +16.5 84 +21 +21 комфорт 1017.8 983.3
01 9.08 штиль 0 15 км н/о +18.8 +16.4 86 +20 +20 1017.6 983.1
02 9.08 Ю 1 22 км н/о +18.8 +16.0 84 +21 +21 комфорт 1017.7 983.2
03 9.08 штиль 0 16 км н/о +18.0 +15.8 87 +18 +18 1017.9 983.3
04 9.08 Ю 1 16 км н/о +17.9 +16.1 89 +19 +19 1018.4 983.7
05 9.08 штиль 0 18 км н/о +18.5 +16.3 87 +19 +19 1018.6 984.0
06 9.08 ЮЗ 1 24 км н/о +21.1 +17.1 78 +25 +25 комфорт 1018.4 984.1 +17.6 +26.5
07 9.08 ЮЗ 1 30 км н/о +24.2 +17.7 67 +28 +28 душно 1018.1 984.2
08 9.08 ЮЗ 1 24 км н/о +26.2 +17.3 58 +30 +30 душно 1017.9 984.2
09 9.08 З 1 30 км н/о +28.6 +16.8 49 +32 +32 душно 1017.5 984.1
10 9.08 З 1 21 км н/о +30.3 +17.7 47 +35 +35 очень
душно
1017.1 983.9
11 9.08 ЮВ 3 22 км н/о +32.1 +15.6 37 +35 +35 очень
душно
1016.6 983.6
12 9.08 В 2 30 км н/о +30.9 +16.9 43 +34 +34 душно 1016.5 983.4
13 9.08 ЮВ 2
{8}
3000 м слабый ливневой дождь со снегом н/о +26.3 +17.6 59 +31 +31 душно 1017.5 983.8
14 9.08 С 1 21 км в посл. час дождь со снегом н/о +25.7 +20.3 72 +32 +32 очень
душно
1017.5 983.8
15 9.08 Ю 3
{8}
25 км н/о +28.7 +17.6 51 +33 +33 очень
душно
1016.6 983.2
16 9.08 Ю 2 29 км н/о +29.2 +17.1 48 +33 +33 очень
душно
1016.2 982.9
17 9.08 В 1 29 км н/о +28.3 +18.4 55 +33 +33 очень
душно
1016.4 983.0
18 9.08 З 1
{8}
12 км н/о +25.2 +18.6 67 +30 +30 душно 1016.8 983.0 +21.1 +32.2 1
19 9.08 СВ 1 13 км н/о +23.6 +19.3 77 +29 +29 душно 1017.2 983.2
20 9.08 ЮЗ 1 13 км н/о +22.5 +19.3 82 +28 +28 душно 1017.4 983.3
21 9.08 В 1 11 км н/о +21.8 +19.4 86 +27 +27 душно 1017.5 983.3
22 9.08 З 1 11 км н/о +21.3 +18.5 84 +26 +26 душно 1017.6 983.4
23 9.08 ЮЗ 1 14 км н/о +21.1 +17.7 81 +25 +25 комфорт 1017.9 983.6
00 10.08 Ю 1 12 км н/о +20.3 +17.7 85 +25 +25 комфорт 1018.2 983.8
01 10.08 В 1 7000 м дымка н/о +19.3 +17.4 89 +22 +22 комфорт 1018.5 984.0
02 10.08 Ю 1 9000 м дымка н/о +18.8 +17.1 90 +21 +21 комфорт 1018.7 984.1
03 10.08 штиль 0 4200 м дымка н/о +18.0 +16.7 92 +18 +18 1019.0 984.3
04 10.08 штиль 0 4300 м дымка н/о +17.8 +16.7 93 +18 +18 1019.2 984.5
05 10.08 ЮВ 1 8000 м дымка н/о +18.4 +17.2 93 +20 +20 1019.5 984.9
06 10.08 ЮЗ 1 13 км н/о +21.3 +17.9 81 +25 +25 комфорт 1019.3 985.0 +17.6 +25.2
07 10.08 З 1 22 км н/о +24.5 +18.7 70 +29 +29 душно 1019.0 985.1
08 10.08 З 1 19 км н/о +27.3 +18.9 60 +32 +32 очень
душно
1018.8 985.2
09 10.08 ЮЗ 2 22 км н/о +29.2 +19.2 55 +35 +35 очень
душно
1018.7 985.3
10 10.08 З 1 28 км н/о +30.5 +18.9 50 +36 +36 очень
душно
1018.5 985.3
11 10.08 штиль 0 26 км н/о +30.7 +17.4 45 +35 +35 очень
душно
1018.3 985.1
12 10.08 С 2-7
{7}
23 км ливневой дождь н/о +27.0 +16.0 51 +30 +30 душно 1018.3 984.7 0.0
13 10.08 СЗ 2-7
{12}
11 км ливневой дождь н/о +22.5 +18.1 76 +28 +28 душно 1019.1 985.0
14 10.08 З 3-11
{13}
500 м слабый ливневой дождь со снегом н/о +19.5 +18.2 92 +22 +22 комфорт 1021.4 986.8
15 10.08 З 2
{13}
12 км слаб. ливневой дождь н/о +20.5 +19.0 91 +25 +25 комфорт 1020.0 985.6
16 10.08 СВ 1 20 км н/о +21.3 +18.9 86 +26 +26 душно 1020.1 985.8
17 10.08 ЮЗ 1 18 км н/о +21.6 +19.0 85 +26 +26 душно 1020.5 986.2
18 10.08 В 1
{13}
14 км н/о +21.3 +19.2 88 +26 +26 душно 1021.4 987.0 +19.5 +31.3 20
19 10.08 СВ 1 5000 м ливневой дождь н/о +20.9 +19.6 92 +27 +27 душно 1022.4 988.0
20 10.08 СВ 1 7000 м в посл. час дождь со снегом н/о +20.6 +19.1 91 +26 +26 душно 1022.8 988.3
21 10.08 штиль 0 1800 м дымка н/о +20.1 +18.9 93 +23 +23 комфорт 1023.2 988.6
22 10.08 Ю 1 2700 м дымка н/о +19.9 +19.1 95 +24 +24 комфорт 1023.1 988.5
23 10.08 С 1 2600 м дымка н/о +19.9 +19.1 95 +24 +24 комфорт 1022.3 987.7
00 11.08 СЗ 1 900 м пыльная буря н/о +19.3 +18.5 95 +23 +23 комфорт 1021.7 987.1 0.2
01 11.08 С 1 1800 м в посл. час морось н/о +19.1 +18.4 96 +22 +22 комфорт 1021.6 987.0
02 11.08 С 2 2100 м дымка н/о +19.0 +18.3 96 +21 +21 комфорт 1021.2 986.6
03 11.08 С 3 8000 м дымка н/о +18.6 +17.4 93 +20 +20 1021.1 986.4
04 11.08 С 2 9000 м дымка н/о +18.1 +16.8 92 +19 +19 1021.1 986.4
05 11.08 С 2 8000 м дымка н/о +18.3 +16.6 90 +19 +19 1020.8 986.1
06 11.08 З 2 1400 м слабый ливневой дождь со снегом н/о +17.8 +16.7 93 +18 +18 1022.0 987.2 +17.7 +21.3 4
07 11.08 З 1 6000 м слабый дождь н/о +17.5 +16.7 95 +19 +19 1021.6 986.8
08 11.08 ЮЗ 1 6000 м слабый дождь н/о +18.1 +17.5 96 +19 +19 1021.4 986.7
09 11.08 В 1 3100 м дождь н/о +18.1 +17.3 95 +19 +19 1021.3 986.6
10 11.08 З 1 7000 м слабый дождь н/о +18.7 +17.7 94 +21 +21 комфорт 1020.9 986.3
11 11.08 СЗ 1 8000 м дождь н/о +19.4 +18.1 92 +23 +23 комфорт 1020.7 986.1
12 11.08 С 1 16 км слабый дождь н/о +19.4 +17.7 90 +23 +23 комфорт 1020.3 985.8 8
13 11.08 С 2 7000 м в посл. час снег н/о +18.7 +17.0 90 +20 +20 1020.6 986.0
14 11.08 С 2 3600 м сильный ливневой дождь н/о +17.9 +16.6 92 +18 +18 1020.7 986.0
15 11.08 С 1 7000 м в посл. час дождь н/о +18.4 +17.1 92 +20 +20 1020.6 985.9
16 11.08 СВ 1 11 км н/о +18.8 +16.6 87 +21 +21 комфорт 1020.4 985.8
17 11.08 СВ 1 10 км н/о +19.0 +17.0 88 +22 +22 комфорт 1020.3 985.7
18 11.08 штиль 0 6000 м дымка н/о +18.2 +16.5 90 +19 +19 1020.8 986.1 +17.4 +19.9 10
19 11.08 штиль 0 2500 м дымка н/о +17.9 +16.8 93 +18 +18 1021.0 986.3
20 11.08 ЮЗ 2 2300 м дымка н/о +17.5 +16.7 95 +18 +18 1021.0 986.2
21 11.08 Ю 1 900 м туман н/о +16.5 +15.7 95 +17 +17 1020.8 985.9
22 11.08 Ю 2 5000 м в посл. час морось н/о +15.9 +15.1 95 +16 +16 1020.9 985.9
23 11.08 Ю 1 3500 м дымка н/о +14.9 +14.1 95 +15 +15 1021.2 986.1
00 12.08 штиль 0 9000 м н/о +14.2 +13.4 95 +14 +14 1021.5 986.3
01 12.08 ЮЗ 1 6000 м дымка н/о +14.1 +13.6 97 +14 +14 1022.1 986.9
02 12.08 ЮЗ 1 400 м сильная пыльная буря н/о +13.6 +13.1 97 +14 +14 1022.2 986.9
03 12.08 штиль 0 1200 м в посл. час туман н/о +14.0 +13.5 97 +14 +14 1022.1 986.9
04 12.08 ЮВ 1 300 м сильная пыльная буря н/о +13.6 +13.1 97 +14 +14 1022.2 986.9
05 12.08 штиль 0 4000 м в посл. час морось н/о +13.9 +13.4 97 +13 +13 1022.6 987.3
06 12.08 З 1 2300 м дымка н/о +14.3 +13.8 97 +15 +15 1022.6 987.4 +13.5 +18.2
07 12.08 З 1 6000 м дымка н/о +15.7 +14.6 93 +16 +16 1022.4 987.3
08 12.08 З 1 13 км н/о +18.7 +16.1 85 +21 +21 комфорт 1021.9 987.2
09 12.08 СЗ 1 24 км н/о +20.7 +14.8 69 +25 +25 комфорт 1021.3 986.9
10 12.08 СВ 3 30 км н/о +22.8 +10.6 46 +25 +25 комфорт 1020.7 986.5
11 12.08 С 2 30 км н/о +23.6 +13.2 52 +26 +26 жарко 1020.0 985.9
12 12.08 СВ 2 35 км н/о +24.7 +12.6 47 +27 +27 жарко 1019.2 985.3
13 12.08 СВ 3 27 км н/о +24.7 +12.3 46 +26 +26 жарко 1018.6 984.7
14 12.08 СВ 3 28 км н/о +25.0 +12.6 46 +27 +27 жарко 1017.8 984.0
15 12.08 С 3 35 км н/о +24.5 +14.0 52 +27 +27 жарко 1017.2 983.3
16 12.08 СВ 3 35 км н/о +24.0 +14.7 56 +27 +27 жарко 1016.7 982.8
17 12.08 СВ 2 30 км н/о +23.2 +15.3 61 +27 +27 душно 1016.3 982.3
18 12.08 СВ 1 30 км н/о +21.9 +15.3 66 +25 +25 комфорт 1016.0 981.9 +14.3 +25.2
19 12.08 Ю 1 16 км н/о +19.6 +15.9 79 +23 +23 комфорт 1016.4 982.0
20 12.08 Ю 1 15 км н/о +18.1 +15.9 87 +19 +19 1016.6 982.0
21 12.08 Ю 1 6000 м дымка н/о +17.0 +15.5 91 +18 +18 1016.6 981.9
22 12.08 ЮЗ 1 4800 м дымка н/о +16.1 +14.8 92 +17 +17 1016.6 981.8
23 12.08 В 1 15 км н/о +15.7 +14.1 90 +16 +16 1016.6 981.7
00 13.08 ЮВ 1 6000 м дымка н/о +14.8 +13.7 93 +15 +15 1016.5 981.5
01 13.08 штиль 0 4800 м дымка н/о +14.1 +13.1 94 +14 +14 1016.3 981.3
02 13.08 штиль 0 1000 м дымка н/о +13.7 +12.9 95 +13 +13 1016.1 981.0
03 13.08 штиль 0 2200 м дымка н/о +13.2 +12.4 95 +13 +13 1016.1 981.0
04 13.08 штиль 0 4800 м дымка н/о +13.0 +12.2 95 +12 +12 1016.0 980.8
05 13.08 ЮЗ 1
{13}
12 км дымка н/о +13.7 +13.2 97 +14 +14 1015.8 980.7
06 13.08 ЮЗ 1
{13}
25 км н/о +16.0 +14.4 90 +17 +17 1015.3 980.5 +13.0 +21.8
07 13.08 З 1 28 км н/о +19.0 +15.1 78 +21 +21 комфорт 1014.5 980.1
08 13.08 З 1 30 км н/о +21.7 +15.3 67 +25 +25 комфорт 1013.8 979.7
09 13.08 З 1 29 км н/о +24.4 +15.6 58 +27 +27 жарко 1012.8 979.1
10 13.08 ЮЗ 1 28 км н/о +26.5 +15.5 51 +30 +30 душно 1012.1 978.6
11 13.08 Ю 2 30 км н/о +28.8 +15.3 44 +32 +32 душно 1011.1 977.9
12 13.08 ЮЗ 2
{7}
28 км н/о +28.7 +15.2 44 +31 +31 жарко 1010.6 977.4
13 13.08 З 2 27 км н/о +29.9 +14.0 38 +32 +32 жарко 1009.9 976.9
14 13.08 ЮЗ 2 26 км н/о +30.5 +14.6 38 +33 +33 душно 1009.3 976.4
15 13.08 ЮЗ 1 30 км н/о +30.8 +15.2 39 +33 +33 душно 1008.9 976.0
16 13.08 ЮЗ 2 27 км н/о +30.0 +15.7 42 +33 +33 душно 1008.7 975.7
17 13.08 ЮЗ 1 21 км н/о +27.7 +15.4 47 +31 +31 душно 1008.9 975.7
18 13.08 ЮВ 1 22 км н/о +26.6 +15.0 49 +29 +29 жарко 1009.2 975.8 +16.1 +30.9
19 13.08 ЮВ 1 13 км н/о +23.6 +16.1 63 +27 +27 жарко 1009.9 976.2
20 13.08 Ю 1 6000 м дымка н/о +21.2 +17.0 77 +25 +25 комфорт 1010.4 976.4
21 13.08 штиль 0 7000 м дымка н/о +19.5 +16.9 85 +21 +21 комфорт 1010.7 976.5
22 13.08 СВ 1 5000 м дымка н/о +18.7 +16.7 88 +21 +21 комфорт 1010.9 976.6
23 13.08 ЮЗ 1 6000 м дымка н/о +18.0 +16.0 88 +19 +19 1011.2 976.8
00 14.08 В 1 8000 м дымка н/о +17.3 +15.5 89 +18 +18 1011.2 976.7
01 14.08 В 1 10 км дымка н/о +16.9 +14.9 88 +18 +18 1011.3 976.8
02 14.08 ЮЗ 1 6000 м дымка н/о +16.2 +14.7 91 +17 +17 1011.2 976.6
03 14.08 ЮВ 1 7000 м дымка н/о +15.8 +14.5 92 +16 +16 1011.1 976.4
04 14.08 штиль 0 3300 м дымка н/о +15.5 +14.4 93 +15 +15 1011.3 976.6
05 14.08 штиль 0 9000 м дымка н/о +16.1 +14.6 91 +16 +16 1011.4 976.8
06 14.08 штиль 0 11 км н/о +18.7 +15.9 84 +20 +20 1011.0 976.7 +15.5 +26.6
07 14.08 ЮЗ 1 18 км н/о +21.7 +16.4 72 +26 +26 душно 1010.2 976.3
08 14.08 З 1 24 км н/о +24.7 +17.4 64 +29 +29 душно 1009.8 976.2
09 14.08 Ю 2 20 км н/о +27.7 +17.8 55 +32 +32 очень
душно
1009.0 975.8
10 14.08 Ю 4
{8}
26 км н/о +28.5 +16.1 47 +32 +32 душно 1008.5 975.4
11 14.08 Ю 3
{6}
29 км н/о +29.9 +15.2 41 +32 +32 жарко 1008.1 975.1
12 14.08 З 3-10
{11}
21 км н/о +22.6 +17.5 73 +28 +28 душно 1011.1 977.2
13 14.08 С 1
{9}
16 км н/о +22.7 +18.7 78 +28 +28 душно 1011.0 977.1
14 14.08 С 1 12 км ливневой дождь н/о +22.8 +18.1 75 +28 +28 душно 1011.3 977.4
15 14.08 Ю 1
{9}
4000 м слаб. ливневой дождь н/о +21.1 +19.2 89 +26 +26 душно 1012.0 977.9
16 14.08 В 1 10 км слабый дождь н/о +19.5 +18.2 92 +23 +23 комфорт 1012.6 978.3
17 14.08 З 1 7000 м ливневой дождь н/о +18.8 +17.6 93 +21 +21 комфорт 1013.0 978.6
18 14.08 Ю 1
{9}
2000 м дождь н/о +18.7 +17.9 95 +21 +21 комфорт 1013.0 978.6 +18.7 +30.4 15

 

Местоположение метеостанции Nowy Sacz (Польша): широта 49.62 долгота 20.70 высота над уровнем моря 295 м.

В архиве по умолчанию представлена погода в Nowy Sacz за последнюю неделю. Архивные данные за месяц целиком и за предыдущие месяцы, начиная с января 2011 года, Вы можете получить, выбрав интересующий диапазон дат из раскрывающегося списка и нажав кнопку "Ввод!".


*Определитесь, кто Вы:
робот инопланетянин человек

Внимание! Время в таблицах - всемирное. Для получения местного времени необходимо прибавить поправку, которая в Nowy Sacz равна 1 ч.

Смотрите также архив погоды в соседних городах и на ближайших метеорологических станциях:

Погода в Tarnow (Польша) (50 км)
Погода в Lomnicky Stit (Словакия) (58 км)
Погода в Zakopane (Польша) (64 км)
Погода в Kasprowy Wierch (Польша) (68 км)
Погода в Poprad (Словакия) (69 км)
Погода в Poprad-Ganovce (Словакия) (71 км)
Погода в Strbske Pleso (Словакия) (71 км)
Погода в Krosno (Польша) (76 км)
Погода в Liesek (Словакия) (79 км)
Погода в Presov (Словакия) (80 км)

Пояснения к столбцам:

Ветер - указаны скорость ветра в м/с - средняя за 10 мин, порывы в срок и между сроками (в фигурных скобках) и направление, откуда дует ветер: С - северный, СВ - северо-восточный, В - восточный, ЮВ - юго-восточный, Ю - южный, ЮЗ - юго-западный, З - западный, СЗ - северо-западный.
Видимость - горизонтальная дальность видимости в метрах или километрах. При видимости от 1 до 10 км при отсутствии осадков обычно наблюдается дымка, при ухудшении видимости до 1 км и менее - туман. В сухую погоду видимость может ухудшаться дымом, пылью или мглою.
Явления - указаны атмосферные явления, наблюдавшиеся в срок или в последний час перед сроком; фигурными скобками обозначены явления, наблюдавшиеся между сроками (за 1-3 часа до срока); квадратными скобками обозначены град или гололедные отложения с указанием их диаметра в мм.
Облачность - указаны через наклонную черту общая и нижняя облачность в баллах и высота нижней границы облаков в метрах; квадратными скобками обозначены формы облаков: Ci - перистые, Cs - перисто-слоистые, Cc - перисто-кучевые, Ac - высококучевые, As - высокослоистые, Sc - слоисто-кучевые, Ns - слоисто-дождевые, Cu - кучевые, Cb - кучево-дождевые. Подробнее классификацию облаков см. в Атласе облаков (PDF).
T - Температура воздуха - температура, измеренная на высоте 2 м над землей.
Td - Температура точки росы - температура, при понижении до которой содержащийся в воздухе водяной пар достигнет насыщения.
f - Относительная влажность воздуха - влажноcть воздуха, измеренная на высоте 2 м над землей.
Te - Эффективная температура - температура, которую ощущает одетый по сезону человек в тени. Характеристика душности погоды. При расчете учитывается влияние влажности воздуха и скорости ветра на теплоощущения человека.
Tes - Эффективная температура на солнце - температура, которую ощущает человек, с поправкой на солнечный нагрев. Характеристика знойности погоды. Зависит от высоты солнца над горизонтом, облачности и скорости ветра. Ночью, в пасмурную погоду, а также при ветре 12 м/с и более поправка равна нулю.
P - Атмосферное давление - приведенное к уровню моря атмосферное давление.
Po - Атмосферное давление - измеренное на уровне метеостанции атмосферное давление.
Tmin - Минимальная температура - минимум температуры воздуха на высоте 2 м над землей.
Tmax - Максимальная температура - максимум температуры воздуха на высоте 2 м над землей.
R - Количество осадков - Количество выпавших осадков за период времени, мм. При наведении курсора мыши на число - период времени, за который выпало указанное количество осадков.
R24 - Количество осадков - Количество выпавших осадков за 24 часа, мм.
S - Снежный покров - Высота снежного покрова, см. При наведении курсора мыши на число - состояние снежного покрова и степень покрытия местности в баллах.